Time,TemperatureF,DewpointF,PressureIn,WindDirection,WindDirectionDegrees,WindSpeedMPH,WindSpeedGustMPH,Humidity,HourlyPrecipIn,Conditions,Clouds,dailyrainin,SoftwareType,DateUTC
2013-03-11 00:08:00,64.2,43.0,29.14,SE,135,4.9,8.7,46,0.00,,OVC240,0.00,VWS V14.01,2013-03-11 05:08:00,
2013-03-11 00:18:00,63.9,42.7,29.14,WSW,248,2.9,7.6,46,0.00,,OVC240,0.00,VWS V14.01,2013-03-11 05:18:00,
2013-03-11 00:28:00,63.7,42.5,29.14,SSE,158,4.3,4.9,46,0.00,,OVC240,0.00,VWS V14.01,2013-03-11 05:28:00,
2013-03-11 00:38:00,63.3,42.8,29.14,South,180,2.0,4.9,47,0.00,,OVC240,0.00,VWS V14.01,2013-03-11 05:38:00,
2013-03-11 00:48:00,62.8,42.3,29.14,SSE,158,4.0,4.9,47,0.00,,OVC240,0.00,VWS V14.01,2013-03-11 05:48:00,
2013-03-11 00:58:00,62.4,43.0,29.17,SW,225,4.3,4.3,49,0.00,,OVC240,0.00,VWS V14.01,2013-03-11 05:58:00,
2013-03-11 01:08:00,61.9,42.5,29.17,SE,135,8.7,8.7,49,0.00,,OVC240,0.00,VWS V14.01,2013-03-11 06:08:00,
2013-03-11 01:18:00,61.3,42.6,29.12,SSE,158,3.4,8.7,50,0.00,,OVC240,0.00,VWS V14.01,2013-03-11 06:18:00,
2013-03-11 01:28:00,61.2,42.4,29.14,SW,225,6.7,8.7,50,0.00,,OVC240,0.00,VWS V14.01,2013-03-11 06:28:00,
2013-03-11 01:38:00,61.0,42.7,29.14,SW,225,2.7,8.7,51,0.00,,OVC240,0.00,VWS V14.01,2013-03-11 06:38:00,
2013-03-11 01:48:00,61.0,42.7,29.14,West,270,2.2,8.7,51,0.00,,OVC240,0.00,VWS V14.01,2013-03-11 06:48:00,
2013-03-11 01:58:00,61.0,43.2,29.17,SW,225,5.6,6.7,52,0.00,,OVC240,0.00,VWS V14.01,2013-03-11 06:58:00,
2013-03-11 02:08:00,60.8,43.6,29.17,South,180,5.8,6.7,53,0.00,,OVC240,0.00,VWS V14.01,2013-03-11 07:08:00,
2013-03-11 02:18:00,60.4,43.7,29.14,West,270,1.6,5.8,54,0.00,,OVC240,0.00,VWS V14.01,2013-03-11 07:18:00,
2013-03-11 02:28:00,59.9,44.2,29.14,SE,135,4.9,5.8,56,0.00,,OVC240,0.00,VWS V14.01,2013-03-11 07:28:00,
2013-03-11 02:38:00,60.1,45.3,29.14,South,180,8.5,8.5,58,0.00,,OVC240,0.00,VWS V14.01,2013-03-11 07:38:00,
2013-03-11 02:48:00,60.1,45.7,29.12,WSW,248,3.1,8.5,59,0.00,,OVC240,0.00,VWS V14.01,2013-03-11 07:48:00,
2013-03-11 02:58:00,59.9,46.0,29.12,SW,225,4.3,8.5,60,0.00,,OVC240,0.00,VWS V14.01,2013-03-11 07:58:00,
2013-03-11 03:00:00,59.9,46.0,29.12,ESE,112,2.0,4.0,60,0.00,,OVC240,0.00,VWS V14.01,2013-03-11 08:00:00,
2013-03-11 03:10:00,59.5,46.1,29.12,West,270,3.4,3.4,61,0.00,,OVC240,0.00,VWS V14.01,2013-03-11 08:10:00,
2013-03-11 03:20:00,59.7,47.1,29.12,WSW,248,9.6,9.6,63,0.00,,OVC240,0.00,VWS V14.01,2013-03-11 08:20:00,
2013-03-11 03:30:00,59.7,47.5,29.12,West,270,2.5,2.9,64,0.00,,OVC240,0.00,VWS V14.01,2013-03-11 08:30:00,
2013-03-11 03:40:00,59.7,47.5,29.12,West,270,2.2,2.2,64,0.00,,OVC240,0.00,VWS V14.01,2013-03-11 08:40:00,
2013-03-11 03:50:00,59.7,48.8,29.09,South,180,2.2,4.0,67,0.00,,OVC240,0.00,VWS V14.01,2013-03-11 08:50:00,
2013-03-11 04:00:00,59.7,48.8,29.09,North,0,3.1,3.1,67,0.00,,OVC240,0.00,VWS V14.01,2013-03-11 09:00:00,
2013-03-11 04:10:00,60.1,49.5,29.09,SSE,158,3.6,3.6,68,0.00,,OVC240,0.00,VWS V14.01,2013-03-11 09:10:00,
2013-03-11 04:20:00,60.1,49.5,29.12,SE,135,3.8,3.8,68,0.00,,OVC240,0.00,VWS V14.01,2013-03-11 09:20:00,
2013-03-11 04:30:00,60.1,49.5,29.12,WSW,248,2.0,2.7,68,0.00,,OVC240,0.00,VWS V14.01,2013-03-11 09:30:00,
2013-03-11 04:40:00,59.9,49.7,29.12,SSW,202,4.0,4.0,69,0.00,,OVC240,0.00,VWS V14.01,2013-03-11 09:40:00,
2013-03-11 04:50:00,59.9,50.1,29.12,SE,135,8.5,8.5,70,0.00,,OVC240,0.00,VWS V14.01,2013-03-11 09:50:00,
2013-03-11 05:00:00,59.7,49.9,29.12,SW,225,5.8,6.0,70,0.00,,OVC240,0.00,VWS V14.01,2013-03-11 10:00:00,
2013-03-11 05:10:00,59.5,49.8,29.12,ESE,112,0.9,1.6,70,0.00,,OVC240,0.00,VWS V14.01,2013-03-11 10:10:00,
2013-03-11 05:30:00,59.2,49.8,29.12,SE,135,3.8,4.0,71,0.00,,OVC240,0.00,VWS V14.01,2013-03-11 10:30:00,
2013-03-11 05:40:00,59.2,49.8,29.12,SW,225,0.0,1.6,71,0.00,,OVC240,0.00,VWS V14.01,2013-03-11 10:40:00,
2013-03-11 05:50:00,59.5,50.5,29.09,South,180,2.5,2.5,72,0.00,,OVC240,0.00,VWS V14.01,2013-03-11 10:50:00,
2013-03-11 06:00:00,59.7,50.3,29.09,SW,225,3.6,3.6,71,0.00,,OVC240,0.00,VWS V14.01,2013-03-11 11:00:00,
2013-03-11 06:10:00,59.7,50.3,29.09,SW,225,3.4,3.4,71,0.00,,OVC240,0.00,VWS V14.01,2013-03-11 11:10:00,
2013-03-11 06:20:00,59.5,50.9,29.06,West,270,2.7,2.7,73,0.00,,OVC240,0.00,VWS V14.01,2013-03-11 11:20:00,
2013-03-11 06:30:00,59.4,51.1,29.09,SSE,158,4.0,6.5,74,0.00,,OVC240,0.00,VWS V14.01,2013-03-11 11:30:00,
2013-03-11 06:40:00,59.2,51.3,29.09,WSW,248,1.6,1.6,75,0.00,,OVC240,0.00,VWS V14.01,2013-03-11 11:40:00,
2013-03-11 06:50:00,59.4,51.1,29.09,SSW,202,3.4,3.4,74,0.00,,OVC240,0.00,VWS V14.01,2013-03-11 11:50:00,
2013-03-11 07:00:00,59.4,51.8,29.06,SW,225,7.4,7.4,76,0.00,,OVC240,0.00,VWS V14.01,2013-03-11 12:00:00,
2013-03-11 07:10:00,58.3,51.8,29.06,WSW,248,1.1,2.0,79,0.00,,OVC240,0.00,VWS V14.01,2013-03-11 12:10:00,
2013-03-11 07:20:00,58.1,52.6,29.09,SSW,202,2.5,3.4,82,0.00,,OVC240,0.00,VWS V14.01,2013-03-11 12:20:00,
2013-03-11 07:30:00,58.8,52.3,29.09,West,270,3.6,3.6,79,0.00,,OVC240,0.00,VWS V14.01,2013-03-11 12:30:00,
2013-03-11 07:40:00,58.3,52.8,29.09,WNW,292,3.1,3.1,82,0.00,,OVC240,0.00,VWS V14.01,2013-03-11 12:40:00,
2013-03-11 07:50:00,57.6,53.7,29.09,East,90,1.6,2.2,87,0.00,,OVC240,0.00,VWS V14.01,2013-03-11 12:50:00,
2013-03-11 08:00:00,57.0,53.5,29.09,South,180,2.7,2.7,88,0.00,,OVC240,0.00,VWS V14.01,2013-03-11 13:00:00,
2013-03-11 08:10:00,57.2,53.7,29.09,North,0,3.6,3.6,88,0.00,,OVC240,0.00,VWS V14.01,2013-03-11 13:10:00,
2013-03-11 08:20:00,57.0,53.8,29.06,SW,225,0.9,1.1,89,0.00,,OVC240,0.00,VWS V14.01,2013-03-11 13:20:00,
2013-03-11 08:30:00,56.8,53.9,29.06,SE,135,0.9,0.9,90,0.09,,OVC240,0.09,VWS V14.01,2013-03-11 13:30:00,
2013-03-11 08:40:00,56.3,54.0,29.06,West,270,0.9,1.1,92,0.21,,OVC240,0.21,VWS V14.01,2013-03-11 13:40:00,
2013-03-11 08:50:00,56.1,54.4,29.06,WSW,248,2.9,2.9,94,0.29,,OVC240,0.29,VWS V14.01,2013-03-11 13:50:00,
2013-03-11 09:00:00,56.1,54.4,29.09,SSE,158,2.5,2.9,94,0.33,,OVC240,0.33,VWS V14.01,2013-03-11 14:00:00,
2013-03-11 09:10:00,55.9,54.5,29.09,SW,225,1.3,1.3,95,0.42,,OVC240,0.42,VWS V14.01,2013-03-11 14:10:00,
2013-03-11 09:20:00,55.9,54.8,29.09,SE,135,2.9,3.4,96,0.46,,OVC240,0.46,VWS V14.01,2013-03-11 14:20:00,
2013-03-11 09:30:00,55.8,54.6,29.09,SE,135,2.9,2.9,96,0.50,,OVC240,0.50,VWS V14.01,2013-03-11 14:30:00,
2013-03-11 09:40:00,55.6,54.8,29.09,SE,135,2.5,3.6,97,0.45,,OVC240,0.54,VWS V14.01,2013-03-11 14:40:00,
2013-03-11 09:50:00,55.4,54.6,29.12,WSW,248,3.6,3.6,97,0.37,,OVC240,0.58,VWS V14.01,2013-03-11 14:50:00,
2013-03-11 10:00:00,55.6,54.8,29.09,East,90,2.0,2.0,97,0.34,,OVC240,0.63,VWS V14.01,2013-03-11 15:00:00,
2013-03-11 10:10:00,55.6,54.8,29.09,South,180,0.9,2.2,97,0.34,,OVC240,0.67,VWS V14.01,2013-03-11 15:10:00,
2013-03-11 10:20:00,55.8,54.9,29.09,SSE,158,0.9,0.9,97,0.29,,OVC240,0.71,VWS V14.01,2013-03-11 15:20:00,
2013-03-11 10:30:00,55.6,54.8,29.09,West,270,0.0,3.4,97,0.29,,OVC240,0.75,VWS V14.01,2013-03-11 15:30:00,
2013-03-11 10:40:00,55.6,54.8,29.09,West,270,3.4,3.4,97,0.25,,OVC240,0.75,VWS V14.01,2013-03-11 15:40:00,
2013-03-11 10:50:00,55.4,54.8,29.09,West,270,2.0,2.0,98,0.29,,OVC240,0.83,VWS V14.01,2013-03-11 15:50:00,
2013-03-11 11:00:00,55.8,54.9,29.09,SE,135,3.8,3.8,97,0.29,,OVC240,0.87,VWS V14.01,2013-03-11 16:00:00,
2013-03-11 11:10:00,55.8,54.9,29.09,West,270,1.1,1.1,97,0.28,,OVC240,0.91,VWS V14.01,2013-03-11 16:10:00,
2013-03-11 11:20:00,55.8,54.9,29.09,SE,135,1.3,1.3,97,0.24,,OVC240,0.91,VWS V14.01,2013-03-11 16:20:00,
2013-03-11 11:30:00,55.4,54.6,29.09,SE,135,3.1,3.1,97,0.25,,OVC240,0.96,VWS V14.01,2013-03-11 16:30:00,
2013-03-11 11:40:00,55.4,54.6,29.09,West,270,1.1,2.0,97,0.25,,OVC240,1.00,VWS V14.01,2013-03-11 16:40:00,
2013-03-11 11:50:00,55.4,54.6,29.09,SSE,158,2.7,2.7,97,0.25,,OVC240,1.00,VWS V14.01,2013-03-11 16:50:00,
2013-03-11 12:00:00,55.2,54.7,29.09,SW,225,1.3,1.3,98,0.17,,OVC240,1.00,VWS V14.01,2013-03-11 17:00:00,
2013-03-11 12:10:00,55.2,54.7,29.09,SW,225,1.1,1.1,98,0.17,,OVC240,1.04,VWS V14.01,2013-03-11 17:10:00,
2013-03-11 12:20:00,55.0,54.5,29.09,SW,225,1.1,1.1,98,0.13,,OVC240,1.04,VWS V14.01,2013-03-11 17:20:00,
2013-03-11 12:30:00,55.0,54.5,29.09,SE,135,2.0,2.0,98,0.13,,OVC240,1.04,VWS V14.01,2013-03-11 17:30:00,
2013-03-11 12:40:00,55.0,54.5,29.09,SE,135,1.3,2.2,98,0.12,,OVC240,1.08,VWS V14.01,2013-03-11 17:40:00,
2013-03-11 12:50:00,54.9,54.3,29.06,SW,225,2.0,2.2,98,0.12,,OVC240,1.12,VWS V14.01,2013-03-11 17:50:00,
2013-03-11 13:00:00,54.9,54.3,29.06,West,270,1.3,2.9,98,0.12,,OVC240,1.12,VWS V14.01,2013-03-11 18:00:00,
2013-03-11 13:10:00,54.9,54.3,29.06,SSE,158,1.6,2.9,98,0.17,,OVC240,1.17,VWS V14.01,2013-03-11 18:10:00,
2013-03-11 13:30:00,54.7,54.1,29.00,SE,135,2.9,2.9,98,0.17,,OVC240,1.21,VWS V14.01,2013-03-11 18:30:00,
2013-03-11 13:40:00,54.7,54.1,29.00,WSW,248,2.7,2.7,98,0.21,,OVC240,1.25,VWS V14.01,2013-03-11 18:40:00,
2013-03-11 13:50:00,54.5,54.0,29.00,West,270,3.4,3.4,98,0.17,,OVC240,1.25,VWS V14.01,2013-03-11 18:50:00,
2013-03-11 14:00:00,54.5,53.7,29.03,West,270,1.3,1.3,97,0.13,,OVC240,1.25,VWS V14.01,2013-03-11 19:00:00,
2013-03-11 14:10:00,54.5,53.4,29.03,WNW,292,0.9,2.7,96,0.13,,OVC240,1.25,VWS V14.01,2013-03-11 19:10:00,
2013-03-11 14:20:00,54.7,53.3,29.03,WSW,248,1.1,1.6,95,0.08,,OVC240,1.25,VWS V14.01,2013-03-11 19:20:00,
2013-03-11 14:30:00,55.2,53.8,28.97,NW,315,2.9,2.9,95,0.04,,OVC240,1.25,VWS V14.01,2013-03-11 19:30:00,
2013-03-11 14:40:00,55.6,53.9,28.97,WSW,248,3.6,4.7,94,0.04,,OVC240,1.25,VWS V14.01,2013-03-11 19:40:00,
2013-03-11 14:50:00,55.8,54.1,29.03,SW,225,4.0,6.3,94,0.00,,OVC240,1.25,VWS V14.01,2013-03-11 19:50:00,
2013-03-11 15:00:00,55.6,53.6,29.03,SE,135,4.9,4.9,93,0.00,,OVC240,1.25,VWS V14.01,2013-03-11 20:00:00,
2013-03-11 15:10:00,54.3,51.8,29.03,SW,225,8.7,11.4,91,0.00,,OVC240,1.25,VWS V14.01,2013-03-11 20:10:00,
2013-03-11 15:20:00,52.2,48.7,29.03,NNE,22,4.3,6.0,88,0.00,,OVC240,1.25,VWS V14.01,2013-03-11 20:20:00,
2013-03-11 15:30:00,51.3,48.1,29.03,NW,315,5.8,5.8,89,0.00,,OVC240,1.25,VWS V14.01,2013-03-11 20:30:00,
2013-03-11 15:40:00,50.4,47.5,29.03,West,270,3.1,6.3,90,0.00,,OVC240,1.25,VWS V14.01,2013-03-11 20:40:00,
2013-03-11 15:50:00,49.5,46.7,29.03,WSW,248,3.8,10.3,90,0.00,,OVC240,1.25,VWS V14.01,2013-03-11 20:50:00,
2013-03-11 16:00:00,49.1,46.6,29.06,NW,315,5.6,6.0,91,0.00,,OVC240,1.25,VWS V14.01,2013-03-11 21:00:00,
2013-03-11 16:10:00,49.5,47.0,29.06,WNW,292,10.3,10.3,91,0.00,,OVC240,1.25,VWS V14.01,2013-03-11 21:10:00,
2013-03-11 16:20:00,49.6,46.8,29.09,West,270,3.4,8.5,90,0.00,,OVC240,1.25,VWS V14.01,2013-03-11 21:20:00,
2013-03-11 16:30:00,50.0,46.9,29.06,West,270,3.6,4.9,89,0.00,,OVC240,1.25,VWS V14.01,2013-03-11 21:30:00,
2013-03-11 16:40:00,50.2,47.1,29.06,SE,135,0.0,0.0,89,0.00,,OVC240,1.25,VWS V14.01,2013-03-11 21:40:00,
2013-03-11 16:50:00,50.9,47.5,29.09,West,270,1.3,1.3,88,0.00,,OVC240,1.25,VWS V14.01,2013-03-11 21:50:00,
2013-03-11 17:00:00,50.9,46.2,29.09,East,90,2.0,2.5,84,0.00,,OVC240,1.25,VWS V14.01,2013-03-11 22:00:00,
2013-03-11 17:10:00,50.5,46.2,29.09,NE,45,2.7,2.7,85,0.00,,OVC240,1.25,VWS V14.01,2013-03-11 22:10:00,
2013-03-11 17:20:00,50.2,45.8,29.09,SW,225,0.0,1.3,85,0.00,,OVC240,1.25,VWS V14.01,2013-03-11 22:20:00,
2013-03-11 17:30:00,49.8,45.2,29.09,SW,225,0.0,0.0,84,0.00,,OVC240,1.25,VWS V14.01,2013-03-11 22:30:00,
2013-03-11 17:40:00,49.3,44.0,29.09,SW,225,8.1,8.1,82,0.00,,OVC240,1.25,VWS V14.01,2013-03-11 22:40:00,
2013-03-11 17:50:00,48.7,43.2,29.06,SSE,158,2.5,2.5,81,0.00,,OVC240,1.25,VWS V14.01,2013-03-11 22:50:00,
2013-03-11 18:00:00,47.8,42.3,29.09,SSW,202,0.0,0.0,81,0.00,,OVC240,1.25,VWS V14.01,2013-03-11 23:00:00,
2013-03-11 18:10:00,47.1,41.9,29.09,SE,135,3.6,3.6,82,0.00,,OVC240,1.25,VWS V14.01,2013-03-11 23:10:00,
2013-03-11 18:20:00,46.6,41.4,29.09,ESE,112,2.9,2.9,82,0.00,,OVC240,1.25,VWS V14.01,2013-03-11 23:20:00,
2013-03-11 18:30:00,45.9,41.3,29.09,South,180,2.7,3.8,84,0.00,,OVC240,1.25,VWS V14.01,2013-03-11 23:30:00,
2013-03-11 18:40:00,45.7,41.1,29.09,SW,225,2.5,2.5,84,0.00,,OVC240,1.25,VWS V14.01,2013-03-11 23:40:00,
2013-03-11 18:50:00,45.1,40.3,29.12,South,180,5.8,5.8,83,0.00,,OVC240,1.25,VWS V14.01,2013-03-11 23:50:00,
2013-03-11 19:00:00,44.8,39.9,29.12,WNW,292,2.0,2.0,83,0.00,,OVC240,1.25,VWS V14.01,2013-03-12 00:00:00,
2013-03-11 19:10:00,43.9,39.4,29.11,SW,225,3.1,3.1,84,0.00,,OVC240,1.25,VWS V14.01,2013-03-12 00:10:00,
2013-03-11 19:20:00,43.7,38.9,29.12,North,0,4.0,5.4,83,0.00,,OVC240,1.25,VWS V14.01,2013-03-12 00:20:00,
2013-03-11 19:30:00,43.5,38.7,29.12,SW,225,7.8,7.8,83,0.00,,OVC240,1.25,VWS V14.01,2013-03-12 00:30:00,
2013-03-11 19:40:00,43.7,38.9,29.12,North,0,2.7,2.7,83,0.00,,OVC240,1.25,VWS V14.01,2013-03-12 00:40:00,
2013-03-11 19:50:00,43.9,38.1,29.11,West,270,1.6,2.7,80,0.00,,OVC240,1.25,VWS V14.01,2013-03-12 00:50:00,
2013-03-11 20:00:00,42.8,37.7,29.15,NNW,338,0.0,1.1,82,0.00,,OVC240,1.25,VWS V14.01,2013-03-12 01:00:00,
2013-03-11 20:09:00,43.9,39.4,29.12,SW,225,3.1,3.1,84,0.00,,OVC240,1.25,VWS V14.01,2013-03-12 01:09:00,
2013-03-11 20:10:00,41.4,36.9,29.14,NNW,338,2.0,2.0,84,0.00,,OVC240,1.25,VWS V14.01,2013-03-12 01:10:00,
2013-03-11 20:20:00,42.1,38.2,29.14,NNE,22,1.6,1.6,86,0.00,,OVC240,1.25,VWS V14.01,2013-03-12 01:20:00,
2013-03-11 20:30:00,41.7,38.1,29.15,West,270,2.7,2.9,87,0.00,,OVC240,1.25,VWS V14.01,2013-03-12 01:30:00,
2013-03-11 20:40:00,41.0,37.4,29.14,North,0,3.1,3.4,87,0.00,,OVC240,1.25,VWS V14.01,2013-03-12 01:40:00,
2013-03-11 20:49:00,43.9,38.1,29.12,West,270,1.6,2.7,80,0.00,,OVC240,1.25,VWS V14.01,2013-03-12 01:49:00,
2013-03-11 20:50:00,41.4,38.1,29.17,NW,315,2.7,2.7,88,0.00,,OVC240,1.25,VWS V14.01,2013-03-12 01:50:00,
2013-03-11 20:59:00,42.8,37.7,29.14,NNW,338,0.0,1.1,82,0.00,,OVC240,1.25,VWS V14.01,2013-03-12 01:59:00,
2013-03-11 21:00:00,42.1,38.8,29.12,NE,45,2.2,2.2,88,0.00,,OVC240,1.25,VWS V14.01,2013-03-12 02:00:00,
2013-03-11 21:10:00,42.4,38.3,29.12,WNW,292,4.3,4.3,85,0.00,,OVC240,1.25,VWS V14.01,2013-03-12 02:10:00,
2013-03-11 21:20:00,42.3,37.2,29.11,SSW,202,3.4,3.4,82,0.00,,OVC240,1.25,VWS V14.01,2013-03-12 02:20:00,
2013-03-11 21:29:00,41.7,38.1,29.14,West,270,2.7,2.9,87,0.00,,OVC240,1.25,VWS V14.01,2013-03-12 02:29:00,
2013-03-11 21:30:00,41.9,35.5,29.14,North,0,4.7,12.5,78,0.00,,OVC240,1.25,VWS V14.01,2013-03-12 02:30:00,
2013-03-11 21:40:00,41.5,34.5,29.14,NW,315,6.0,6.0,76,0.00,,OVC240,1.25,VWS V14.01,2013-03-12 02:40:00,
2013-03-11 21:49:00,41.4,38.1,29.17,NW,315,2.7,2.7,88,0.00,,OVC240,1.25,VWS V14.01,2013-03-12 02:49:00,
2013-03-11 21:50:00,41.4,34.4,29.12,WNW,292,2.7,2.7,76,0.00,,OVC240,1.25,VWS V14.01,2013-03-12 02:50:00,
2013-03-11 22:00:00,41.0,34.3,29.15,West,270,7.8,8.1,77,0.00,,OVC240,1.25,VWS V14.01,2013-03-12 03:00:00,
2013-03-11 22:10:00,40.8,34.5,29.14,NNW,338,4.3,5.8,78,0.00,,OVC240,1.25,VWS V14.01,2013-03-12 03:10:00,
2013-03-11 22:19:00,42.3,37.2,29.12,SSW,202,3.4,3.4,82,0.00,,OVC240,1.25,VWS V14.01,2013-03-12 03:19:00,
2013-03-11 22:20:00,40.5,34.5,29.12,NW,315,3.6,3.8,79,0.00,,OVC240,1.25,VWS V14.01,2013-03-12 03:20:00,
2013-03-11 22:30:00,40.5,34.5,29.14,WNW,292,3.4,3.8,79,0.00,,OVC240,1.25,VWS V14.01,2013-03-12 03:30:00,
2013-03-11 22:40:00,40.5,34.5,29.14,SSW,202,1.1,2.5,79,0.00,,OVC240,1.25,VWS V14.01,2013-03-12 03:40:00,
2013-03-11 22:50:00,40.3,34.0,29.14,North,0,3.6,3.6,78,0.00,,OVC240,1.25,VWS V14.01,2013-03-12 03:50:00,
2013-03-11 22:59:00,41.0,34.3,29.14,West,270,7.8,8.1,77,0.00,,OVC240,1.25,VWS V14.01,2013-03-12 03:59:00,
2013-03-11 23:00:00,40.3,34.0,29.14,North,0,4.3,4.3,78,0.00,,OVC240,1.25,VWS V14.01,2013-03-12 04:00:00,
2013-03-11 23:10:00,40.3,33.7,29.14,NW,315,6.0,6.0,77,0.00,,OVC240,1.25,VWS V14.01,2013-03-12 04:10:00,
2013-03-11 23:30:00,39.9,32.7,29.14,NNW,338,3.6,5.4,75,0.00,,OVC240,1.25,VWS V14.01,2013-03-12 04:30:00,
2013-03-11 23:40:00,39.6,32.0,29.14,NNE,22,5.4,5.4,74,0.00,,OVC240,1.25,VWS V14.01,2013-03-12 04:40:00,
2013-03-11 23:50:00,39.2,31.6,29.14,NNE,22,2.9,2.9,74,0.00,,OVC240,1.25,VWS V14.01,2013-03-12 04:50:00,